Skip Page Navigation
NASA JPL Caltech
NASA Logo - Jet Propulsion Laboratory + View the NASA Portal
+ Near-Earth Object (NEO) Program
Search JPL
JPL Home Earth Solar System Stars & Galaxies Technology
JPL Solar System Dynamics
BODIES ORBITS EPHEMERIDES TOOLS PHYSICAL DATA DISCOVERY FAQ SITE MAP
JPL Small-Body Database Browser
Search: [ help ]  
(2007 AG)
Classification: Aten [NEO, PHA]          SPK-ID: 3365896
Ephemeris | Orbit Diagram | Orbital Elements | Physical Parameters | Close-Approach Data ]

[ hide orbit diagram ]
Orbit Diagram
Note: Make sure you have Java enabled on your browser to see the applet. This applet is provided as a 3D orbit visualization tool. The applet was implemented using 2-body methods, and hence should not be used for determining accurate long-term trajectories (over several years or decades) or planetary encounter circumstances. For accurate long-term ephemerides, please instead use our Horizons system.
Orbit Viewer

Additional Notes: the orbits shown in the applet are color coded. The planets are white lines, and the asteroid/comet is a blue line. The bright white line indicates the portion of the orbit that is above the ecliptic plane, and the darker portion is below the ecliptic plane. Likewise for the asteroid/comet orbit, the light blue indicates the portion above the ecliptic plane, and the dark blue the portion below the ecliptic plane.

Orbit Viewer applet originally written and kindly provided by Osamu Ajiki (AstroArts), and further modified by Ron Baalke (JPL).


Orbital Elements at Epoch 2456400.5 (2013-Apr-18.0) TDB
Reference: JPL 21 (heliocentric ecliptic J2000)
 Element Value Uncertainty (1-sigma)   Units 
e .3744488538107991 1.1866e-07  
a .7203752949120446 2.501e-08 AU
q .4506315914186131 9.6489e-08 AU
i 11.93928349382201 6.3104e-05 deg
node 283.2808580375473 3.8876e-05 deg
peri 5.611519867235279 4.0319e-05 deg
M 263.992678507246 0.00020933 deg
tp 2456460.057779175637
(2013-Jun-16.55777918)
0.0001327 JED
period 223.3246399322533
0.61
1.163e-05
3.184e-08
d
yr
n 1.612003046816544 8.395e-08 deg/d
Q .990118998405476 3.4376e-08 AU
  Orbit Determination Parameters
   # obs. used (total)      137  
   data-arc span      1791 days (4.90 yr)  
   first obs. used      2007-01-08  
   last obs. used      2011-12-04  
   planetary ephem.      DE405  
   SB-pert. ephem.      SB405-CPV-2  
   condition code      1  
   fit RMS      .49136  
   data source      ORB  
   producer      Otto Matic  
   solution date      2011-Dec-05 01:50:07  

Additional Information
 Earth MOID = .00343084 AU 
 T_jup = 7.898 
[ show covariance matrix ]

Ephemeris | Orbit Diagram | Orbital Elements | Physical Parameters | Close-Approach Data ]

Physical Parameter Table
Parameter Symbol Value Units Sigma Reference Notes
absolute magnitude H 20.126 mag .41577 21 autocmod 2.5a

[ show close-approach data ]
Ephemeris | Orbit Diagram | Orbital Elements | Physical Parameters | Close-Approach Data ]
ABOUT SSD CREDITS/AWARDS PRIVACY/COPYRIGHT GLOSSARY LINKS
FirstGov 2013-May-19 14:02 UT
(server date/time)  
NASA Home Page
Site Manager:   Donald K. Yeomans
Webmaster  Alan B. Chamberlin